ONEWEB-0162 (48056 NORAD) Tracking and Keplerian Element Data

This shows tracking and keplerian element data for the satellite.

Feedback or suggestion? Click here.




ElementValue
Catalog48056
NameONEWEB-0162
Epoch Orbit166
Epoch Day173.91668981
Epoch Year2021
RAAN322.2483
Inclination87.732
Eccentricity0.0006959
Argument of Perigee331.387
Mean Anonmoly329.8686
Mean Motion13.82639398
Decay Rate1.6E-07
L11 48056U 21025Q 21173.91668981 .00000016 00000-0 00000-0 0 9992
L22 48056 87.7320 322.2483 0006959 331.3870 329.8686 13.82639398 1667

Live tracking and technical data element details for ONEWEB-0162 (NORAD 48056). ONEWEB-0162 can be tracked NOW for your location showing map with azimuth and elevation plus other details from your city location.

Track the satellite on the map from your city or location and see movement details for azimuth, elevation, latitude, longitude, range, height, and movement on the map or in text.







IsCatalogInMostPopularTable: catalog: 48056, numindb: 42
Update: records affected: 1



GetName: 48056 ONEWEB-0162

Hit Count: updated at: Thu, 24 Jun 2021 03:34:19 GMT